Starlink 3313

operational
NORAD ID: 50157 Int'l Des: 2021-125 Owner: SPXS Country: US Constellation: starlink
LEOCIRCULAR

Über Starlink 3313

Beschreibung wird geladen...

Live-Position

3D-Globus wird geladen...

Nächste Überflüge

Höhenverlauf

Altitude vs Time

uPlot chart will show altitude changes over time

Zweizeiliger Elementsatz

1 50157U 21125B 25259.25002315 .00441839 00000-0 35439-2 0 9995
2 50157 53.2168 306.1582 0000991 65.2251 312.8665 15.69136470 5963
Epoch: 16. Sept. 2025 • Age: 9 hours

Aktueller Status

Höhe 363.7 km
Geschwindigkeit 7.70 km/s
Subsatellitenpunkt 41.60°N, 119.75°E
Startdatum 18. Dez. 2021
Alter 3.7 years
Typ internet

Technische Details

Klassifizierung Payload
Masse 290.00 kg
Trockenmasse 270.00 kg
Gesamtmasse 290.00 kg
Länge 0.20 m
Durchmesser 2.80 m
Spannweite 9.00 m
Form Box + pan
Hersteller SPXS
Bus-Typ Starlink
Phasenstatus In Orbit
Besitzer/Staat SPXS/US

Große Konstellationen

Loading constellations...